When you browse on this site, cookies collect data to enhance your experience and personalize the content and advertising you see.
Visit our Privacy Policy to learn more. By continuing to use the site, you agree to this use of cookies and data.
  • în România
  • Lista ţărilor
  • Pe 7 zile
  • Temperatura apei
  • Hartă satelitară
  • Meteo pe hartă
  • Widget-uri
  • user-avatar
    Intrare

    Meteo pe oră la Manchester

    Astăzi, 19 Iunie, Miercuri

    Timp Temperatura Precipitaţii Vânt Presiune Umiditate
    00:00 +14°C° 0.4 mm 0 m/s 752 mmHg 90%
    01:00 +13°C° 0.5 mm 0 m/s 752 mmHg 90%
    02:00 +14°C° 0.5 mm 1 m/s 752 mmHg 91%
    03:00 +14°C° 0.5 mm 1 m/s 751 mmHg 91%
    04:00 +14°C° 0.4 mm 1 m/s 751 mmHg 91%
    05:00 +14°C° 0.4 mm 1 m/s 751 mmHg 91%
    06:00 +14°C° 0.4 mm 1 m/s 751 mmHg 91%
    07:00 +14°C° 0 mm 1 m/s 751 mmHg 88%
    08:00 +15°C° 0 mm 1 m/s 751 mmHg 85%
    09:00 +15°C° 0 mm 1 m/s 751 mmHg 82%
    10:00 +16°C° 0 mm 1 m/s 751 mmHg 77%
    11:00 +17°C° 0 mm 2 m/s 750 mmHg 72%
    12:00 +18°C° 0 mm 2 m/s 750 mmHg 66%
    13:00 +18°C° 0.1 mm 3 m/s 750 mmHg 65%
    14:00 +19°C° 0.1 mm 3 m/s 750 mmHg 64%
    15:00 +19°C° 0.1 mm 4 m/s 750 mmHg 63%
    16:00 +18°C° 0 mm 4 m/s 750 mmHg 64%
    17:00 +18°C° 0 mm 4 m/s 750 mmHg 64%
    18:00 +17°C° 0 mm 4 m/s 750 mmHg 64%
    19:00 +16°C° 0 mm 3 m/s 750 mmHg 68%
    20:00 +14°C° 0 mm 3 m/s 750 mmHg 72%
    21:00 +13°C° 0 mm 2 m/s 751 mmHg 76%
    22:00 +13°C° 0 mm 2 m/s 751 mmHg 79%
    23:00 +13°C° 0 mm 2 m/s 751 mmHg 82%

    Mâine, 20 Iunie, Joi

    Timp Temperatura Precipitaţii Vânt Presiune Umiditate
    00:00 +12°C° 0 mm 2 m/s 751 mmHg 85%
    01:00 +12°C° 0.1 mm 2 m/s 751 mmHg 85%
    02:00 +11°C° 0.1 mm 3 m/s 751 mmHg 86%
    03:00 +11°C° 0.1 mm 3 m/s 751 mmHg 86%
    04:00 +12°C° 0.1 mm 3 m/s 751 mmHg 85%
    05:00 +12°C° 0.1 mm 4 m/s 751 mmHg 83%
    06:00 +12°C° 0.1 mm 4 m/s 752 mmHg 81%
    07:00 +12°C° 0.1 mm 4 m/s 752 mmHg 75%
    08:00 +13°C° 0.1 mm 5 m/s 752 mmHg 69%
    09:00 +14°C° 0.1 mm 5 m/s 752 mmHg 63%
    10:00 +14°C° 0 mm 5 m/s 753 mmHg 60%
    11:00 +15°C° 0 mm 5 m/s 753 mmHg 57%
    12:00 +15°C° 0 mm 5 m/s 753 mmHg 55%
    13:00 +15°C° 0 mm 5 m/s 753 mmHg 54%
    14:00 +16°C° 0 mm 5 m/s 753 mmHg 54%
    15:00 +16°C° 0 mm 5 m/s 753 mmHg 54%
    16:00 +15°C° 0 mm 5 m/s 753 mmHg 55%
    17:00 +15°C° 0 mm 4 m/s 753 mmHg 57%
    18:00 +14°C° 0 mm 4 m/s 754 mmHg 59%
    19:00 +13°C° 0 mm 3 m/s 754 mmHg 64%
    20:00 +12°C° 0 mm 3 m/s 754 mmHg 69%
    21:00 +12°C° 0 mm 2 m/s 755 mmHg 74%
    22:00 +10°C° 0 mm 2 m/s 755 mmHg 76%
    23:00 +10°C° 0 mm 2 m/s 755 mmHg 78%

    Poimâine, 21 Iunie, Vineri

    Timp Temperatura Precipitaţii Vânt Presiune Umiditate
    00:00 +10°C° 0 mm 2 m/s 755 mmHg 80%
    01:00 +9°C° 0 mm 2 m/s 756 mmHg 83%
    02:00 +9°C° 0 mm 2 m/s 756 mmHg 85%
    03:00 +9°C° 0 mm 2 m/s 756 mmHg 87%
    04:00 +10°C° 0 mm 3 m/s 756 mmHg 85%
    05:00 +10°C° 0 mm 3 m/s 756 mmHg 83%
    06:00 +11°C° 0 mm 4 m/s 756 mmHg 81%
    07:00 +12°C° 0 mm 4 m/s 757 mmHg 75%
    08:00 +13°C° 0 mm 4 m/s 757 mmHg 69%
    09:00 +13°C° 0 mm 5 m/s 758 mmHg 63%
    10:00 +14°C° 0.1 mm 5 m/s 758 mmHg 61%
    11:00 +14°C° 0.1 mm 4 m/s 758 mmHg 59%
    12:00 +15°C° 0.1 mm 4 m/s 758 mmHg 57%
    13:00 +15°C° 0 mm 4 m/s 758 mmHg 56%
    14:00 +15°C° 0 mm 4 m/s 758 mmHg 54%
    15:00 +17°C° 0 mm 4 m/s 759 mmHg 53%
    16:00 +15°C° 0 mm 4 m/s 759 mmHg 55%
    17:00 +16°C° 0 mm 3 m/s 759 mmHg 57%
    18:00 +14°C° 0 mm 3 m/s 759 mmHg 59%
    19:00 +14°C° 0 mm 2 m/s 759 mmHg 62%
    20:00 +13°C° 0 mm 1 m/s 760 mmHg 66%
    21:00 +11°C° 0 mm 1 m/s 760 mmHg 70%
    22:00 +11°C° 0 mm 1 m/s 760 mmHg 70%
    23:00 +9°C° 0 mm 0 m/s 760 mmHg 70%

    22 Iunie, Sâmbătă

    Timp Temperatura Precipitaţii Vânt Presiune Umiditate
    00:00 +9°C° 0 mm 0 m/s 760 mmHg 71%
    01:00 +9°C° 0 mm 0 m/s 760 mmHg 72%
    02:00 +8°C° 0 mm 0 m/s 760 mmHg 72%
    03:00 +8°C° 0 mm 0 m/s 760 mmHg 72%
    04:00 +9°C° 0 mm 0 m/s 760 mmHg 70%
    05:00 +11°C° 0 mm 1 m/s 760 mmHg 68%
    06:00 +12°C° 0 mm 1 m/s 760 mmHg 67%
    07:00 +13°C° 0 mm 1 m/s 760 mmHg 63%
    08:00 +15°C° 0 mm 1 m/s 760 mmHg 59%
    09:00 +16°C° 0 mm 2 m/s 760 mmHg 55%
    10:00 +17°C° 0 mm 2 m/s 760 mmHg 51%
    11:00 +19°C° 0 mm 1 m/s 760 mmHg 47%
    12:00 +20°C° 0 mm 1 m/s 760 mmHg 43%
    13:00 +21°C° 0 mm 1 m/s 760 mmHg 43%
    14:00 +21°C° 0 mm 1 m/s 760 mmHg 44%
    15:00 +22°C° 0 mm 1 m/s 760 mmHg 45%
    16:00 +21°C° 0 mm 1 m/s 760 mmHg 49%
    17:00 +21°C° 0 mm 1 m/s 760 mmHg 52%
    18:00 +20°C° 0 mm 1 m/s 760 mmHg 56%
    19:00 +19°C° 0 mm 1 m/s 760 mmHg 62%
    20:00 +16°C° 0 mm 1 m/s 761 mmHg 68%
    21:00 +15°C° 0 mm 1 m/s 761 mmHg 74%
    22:00 +14°C° 0 mm 1 m/s 761 mmHg 75%
    23:00 +14°C° 0 mm 1 m/s 761 mmHg 76%

    23 Iunie, Duminică

    Timp Temperatura Precipitaţii Vânt Presiune Umiditate
    00:00 +13°C° 0 mm 1 m/s 761 mmHg 77%
    01:00 +13°C° 0 mm 1 m/s 761 mmHg 77%
    02:00 +13°C° 0 mm 1 m/s 761 mmHg 78%
    03:00 +13°C° 0 mm 1 m/s 761 mmHg 79%
    04:00 +13°C° 0 mm 1 m/s 761 mmHg 79%
    05:00 +14°C° 0 mm 1 m/s 761 mmHg 79%
    06:00 +15°C° 0 mm 1 m/s 761 mmHg 79%
    07:00 +16°C° 0.1 mm 2 m/s 761 mmHg 75%
    08:00 +17°C° 0.1 mm 3 m/s 761 mmHg 71%
    09:00 +18°C° 0.1 mm 3 m/s 761 mmHg 68%
    10:00 +19°C° 0.1 mm 4 m/s 761 mmHg 64%
    11:00 +20°C° 0.1 mm 4 m/s 761 mmHg 60%
    12:00 +21°C° 0.1 mm 4 m/s 761 mmHg 56%
    13:00 +21°C° 0 mm 4 m/s 761 mmHg 56%
    14:00 +21°C° 0 mm 4 m/s 761 mmHg 55%
    15:00 +21°C° 0 mm 5 m/s 761 mmHg 55%
    16:00 +20°C° 0 mm 5 m/s 761 mmHg 60%
    17:00 +19°C° 0 mm 5 m/s 761 mmHg 65%
    18:00 +17°C° 0 mm 5 m/s 761 mmHg 71%
    19:00 +16°C° 0 mm 5 m/s 761 mmHg 67%
    20:00 +15°C° 0 mm 5 m/s 761 mmHg 64%
    21:00 +15°C° 0 mm 5 m/s 761 mmHg 60%
    22:00 +14°C° 0.2 mm 5 m/s 761 mmHg 67%
    23:00 +14°C° 0.2 mm 5 m/s 762 mmHg 73%

    24 Iunie, Luni

    Timp Temperatura Precipitaţii Vânt Presiune Umiditate
    00:00 +13°C° 0.2 mm 5 m/s 762 mmHg 79%
    01:00 +13°C° 0.3 mm 5 m/s 761 mmHg 82%
    02:00 +13°C° 0.3 mm 6 m/s 761 mmHg 84%
    03:00 +12°C° 0.3 mm 7 m/s 760 mmHg 87%
    04:00 +12°C° 0.8 mm 7 m/s 760 mmHg 88%
    05:00 +12°C° 0.8 mm 7 m/s 760 mmHg 89%
    06:00 +12°C° 0.8 mm 7 m/s 760 mmHg 90%
    07:00 +12°C° 1.7 mm 7 m/s 760 mmHg 90%
    08:00 +12°C° 1.7 mm 8 m/s 760 mmHg 89%
    09:00 +12°C° 1.7 mm 8 m/s 760 mmHg 89%
    10:00 +13°C° 0.6 mm 9 m/s 760 mmHg 89%
    11:00 +13°C° 0.6 mm 9 m/s 759 mmHg 89%
    12:00 +13°C° 0.6 mm 9 m/s 759 mmHg 89%
    13:00 +13°C° 0.4 mm 8 m/s 759 mmHg 89%
    14:00 +13°C° 0.4 mm 8 m/s 759 mmHg 89%
    15:00 +15°C° 0.4 mm 8 m/s 759 mmHg 89%
    16:00 +15°C° 0.3 mm 8 m/s 759 mmHg 89%
    17:00 +15°C° 0.3 mm 8 m/s 759 mmHg 89%
    18:00 +15°C° 0.3 mm 9 m/s 758 mmHg 89%
    19:00 +15°C° 0.2 mm 8 m/s 759 mmHg 89%
    20:00 +15°C° 0.2 mm 7 m/s 759 mmHg 89%
    21:00 +15°C° 0.2 mm 6 m/s 759 mmHg 90%
    22:00 +14°C° 0.3 mm 7 m/s 759 mmHg 90%
    23:00 +14°C° 0.3 mm 7 m/s 759 mmHg 90%
    Arată mai mult